Location: Aalen
(48.8330°N, 10.1000°E)
Time: 16:31:17
(UTC+02:00)

UNISAT 6 - Visible Passes

Search period start: 01 April 2023 00:00
Search period end: 11 April 2023 00:00
Orbit: 602 x 680 km, 97.7° (Epoch: 31 March)

Date Brightness Start Highest point End Pass type
(mag) Time Alt. Az. Time Alt. Az. Time Alt. Az.
01 Apr ? 05:36:24 10° SSE 05:40:44 55° ENE 05:45:12 10° N visible
01 Apr ? 20:36:36 10° NNW 20:39:36 17° WNW 20:42:36 10° W visible
02 Apr ? 04:26:18 10° E 04:28:35 14° ENE 04:30:53 10° NNE visible
02 Apr ? 06:00:00 10° SSE 06:04:27 88° WSW 06:09:03 10° NNW visible
02 Apr ? 21:01:43 10° NW 21:03:02 11° NW 21:04:21 10° WNW visible
03 Apr ? 04:48:40 10° ESE 04:52:03 21° ENE 04:55:29 10° NNE visible
04 Apr ? 05:11:34 10° SE 05:15:34 33° ENE 05:19:41 10° N visible
05 Apr ? 05:34:49 10° SSE 05:39:11 54° ENE 05:43:41 10° N visible
05 Apr ? 20:35:02 10° NNW 20:38:04 17° WNW 20:41:05 10° W visible
06 Apr ? 04:24:44 10° E 04:27:01 14° ENE 04:29:20 10° NNE visible
06 Apr ? 05:58:22 10° SSE 06:02:52 90° WSW 06:07:30 10° NNW visible
06 Apr ? 21:00:03 10° NW 21:01:27 11° NW 21:02:52 10° WNW visible
07 Apr ? 04:47:03 10° ESE 04:50:27 21° ENE 04:53:54 10° NNE visible
08 Apr ? 05:09:54 10° SE 05:13:56 33° ENE 05:18:03 10° N visible
09 Apr ? 05:33:06 10° SSE 05:37:30 53° ENE 05:42:01 10° N visible
09 Apr ? 20:33:18 10° NNW 20:36:23 18° WNW 20:39:25 10° W visible
10 Apr ? 04:23:02 10° E 04:25:19 14° ENE 04:27:36 10° NNE visible
10 Apr ? 05:56:36 10° SSE 06:01:09 88° ENE 06:05:48 10° NNW visible
10 Apr ? 20:58:14 10° NW 20:59:44 11° NW 21:01:14 10° WNW visible
